TimeEET,TemperatureF,Dew PointF,Humidity,Sea Level PressureIn,VisibilityMPH,Wind Direction,Wind SpeedMPH,Gust SpeedMPH,PrecipitationIn,Events,Conditions,WindDirDegrees,DateUTC
12:20 AM,53.6,41.0,62,30.12,6.2,NW,5.8,-,N/A,,Partly Cloudy,320,2011-11-02 22:20:00
12:50 AM,51.8,41.0,67,30.12,6.2,NW,6.9,-,N/A,,Partly Cloudy,310,2011-11-02 22:50:00
1:20 AM,51.8,41.0,67,30.12,6.2,NW,5.8,-,N/A,,Partly Cloudy,310,2011-11-02 23:20:00
1:50 AM,51.8,41.0,67,30.12,6.2,NW,4.6,-,N/A,,Partly Cloudy,310,2011-11-02 23:50:00
2:20 AM,50.0,41.0,71,30.12,6.2,Calm,Calm,-,N/A,,Partly Cloudy,0,2011-11-03 00:20:00
2:50 AM,48.2,39.2,71,30.12,6.2,Calm,Calm,-,N/A,,Partly Cloudy,0,2011-11-03 00:50:00
3:20 AM,48.2,39.2,71,30.12,6.2,Calm,Calm,-,N/A,,Partly Cloudy,0,2011-11-03 01:20:00
3:50 AM,48.2,41.0,76,30.12,6.2,Calm,Calm,-,N/A,,Partly Cloudy,0,2011-11-03 01:50:00
4:20 AM,48.2,41.0,76,30.12,6.2,Calm,Calm,-,N/A,,Partly Cloudy,0,2011-11-03 02:20:00
4:50 AM,50.0,41.0,71,30.12,6.2,Calm,Calm,-,N/A,,Partly Cloudy,0,2011-11-03 02:50:00
5:20 AM,51.8,42.8,71,30.12,6.2,Calm,Calm,-,N/A,,Partly Cloudy,0,2011-11-03 03:20:00
5:50 AM,51.8,42.8,71,30.12,6.2,Calm,Calm,-,N/A,,Partly Cloudy,0,2011-11-03 03:50:00
6:20 AM,51.8,42.8,71,30.12,6.2,Calm,Calm,-,N/A,,Partly Cloudy,0,2011-11-03 04:20:00
6:50 AM,51.8,44.6,76,30.12,6.2,Calm,Calm,-,N/A,,Scattered Clouds,0,2011-11-03 04:50:00
7:20 AM,53.6,44.6,72,30.12,6.2,North,3.5,-,N/A,,Scattered Clouds,360,2011-11-03 05:20:00
7:50 AM,55.4,44.6,67,30.12,6.2,NNW,6.9,-,N/A,,Scattered Clouds,330,2011-11-03 05:50:00
8:20 AM,55.4,44.6,67,30.12,6.2,NW,5.8,-,N/A,,Scattered Clouds,320,2011-11-03 06:20:00
8:50 AM,57.2,42.8,59,30.12,6.2,NW,4.6,-,N/A,,Scattered Clouds,320,2011-11-03 06:50:00
9:20 AM,59.0,42.8,55,30.12,6.2,NNW,5.8,-,N/A,,Scattered Clouds,340,2011-11-03 07:20:00
9:50 AM,59.0,41.0,51,30.12,6.2,NNW,10.4,-,N/A,,Scattered Clouds,340,2011-11-03 07:50:00
10:20 AM,59.0,41.0,51,30.12,6.2,North,10.4,-,N/A,,Scattered Clouds,350,2011-11-03 08:20:00
10:50 AM,60.8,41.0,48,30.12,6.2,North,8.1,-,N/A,,Scattered Clouds,10,2011-11-03 08:50:00
11:20 AM,60.8,41.0,48,30.12,6.2,North,8.1,-,N/A,,Scattered Clouds,10,2011-11-03 09:20:00
11:50 AM,60.8,39.2,45,30.09,6.2,North,9.2,-,N/A,,Scattered Clouds,350,2011-11-03 09:50:00
12:20 PM,62.6,39.2,42,30.09,6.2,North,10.4,-,N/A,,Mostly Cloudy,10,2011-11-03 10:20:00
12:50 PM,64.4,39.2,40,30.09,6.2,North,13.8,-,N/A,,Mostly Cloudy,10,2011-11-03 10:50:00
1:20 PM,62.6,37.4,39,30.09,6.2,NNE,11.5,-,N/A,,Mostly Cloudy,20,2011-11-03 11:20:00
1:50 PM,62.6,37.4,39,30.06,6.2,North,12.7,-,N/A,,Mostly Cloudy,10,2011-11-03 11:50:00
2:20 PM,62.6,39.2,42,30.06,6.2,North,12.7,-,N/A,,Mostly Cloudy,10,2011-11-03 12:20:00
2:50 PM,60.8,39.2,45,30.06,6.2,North,11.5,-,N/A,,Mostly Cloudy,10,2011-11-03 12:50:00
3:20 PM,62.6,39.2,42,30.06,6.2,North,12.7,-,N/A,,Mostly Cloudy,10,2011-11-03 13:20:00
3:50 PM,62.6,39.2,42,30.06,6.2,North,10.4,-,N/A,,Mostly Cloudy,350,2011-11-03 13:50:00
4:20 PM,60.8,39.2,45,30.06,6.2,North,11.5,-,N/A,,Scattered Clouds,350,2011-11-03 14:20:00
4:50 PM,59.0,39.2,48,30.09,6.2,North,9.2,-,N/A,,Scattered Clouds,350,2011-11-03 14:50:00
5:20 PM,59.0,41.0,51,30.09,6.2,North,4.6,-,N/A,,Partly Cloudy,360,2011-11-03 15:20:00
5:50 PM,57.2,39.2,51,30.09,6.2,North,5.8,-,N/A,,Scattered Clouds,350,2011-11-03 15:50:00
6:20 PM,57.2,39.2,51,30.09,6.2,North,6.9,-,N/A,,Partly Cloudy,350,2011-11-03 16:20:00
6:50 PM,55.4,39.2,54,30.06,6.2,NNW,4.6,-,N/A,,Partly Cloudy,340,2011-11-03 16:50:00
7:20 PM,55.4,39.2,54,30.06,6.2,NNW,4.6,-,N/A,,Partly Cloudy,340,2011-11-03 17:20:00
7:50 PM,55.4,39.2,54,30.09,6.2,Calm,Calm,-,N/A,,Partly Cloudy,0,2011-11-03 17:50:00
8:20 PM,55.4,39.2,54,30.09,6.2,Calm,Calm,-,N/A,,Partly Cloudy,0,2011-11-03 18:20:00
8:50 PM,51.8,39.2,62,30.09,6.2,Calm,Calm,-,N/A,,Partly Cloudy,0,2011-11-03 18:50:00
9:20 PM,51.8,39.2,62,30.09,6.2,Calm,Calm,-,N/A,,Partly Cloudy,0,2011-11-03 19:20:00
9:50 PM,51.8,39.2,62,30.12,6.2,Calm,Calm,-,N/A,,Partly Cloudy,0,2011-11-03 19:50:00
10:20 PM,51.8,41.0,67,30.12,6.2,Calm,Calm,-,N/A,,Partly Cloudy,0,2011-11-03 20:20:00
10:50 PM,51.8,39.2,62,30.12,6.2,Variable,2.3,-,N/A,,Partly Cloudy,0,2011-11-03 20:50:00
11:20 PM,50.0,39.2,66,30.12,6.2,Variable,2.3,-,N/A,,Partly Cloudy,0,2011-11-03 21:20:00
11:50 PM,50.0,39.2,66,30.12,6.2,Variable,3.5,-,N/A,,Partly Cloudy,0,2011-11-03 21:50:00